CZ-6A DEB, 56284

Orbit data source: Space-Track

CZ-6A DEB, 56284 is space debris in SSO originally from a launch on Fri, 11 Nov 2022 UTC launched from the Taiyaun Space Center, China (TSC). Debris objects in space refer to the collection of defunct objects orbiting the Earth. Examples of debris include non-operational satellites, rocket bodies, and fragments generated from explosions, collisions, or faulty payload assembly.

Loading next visibility...
Identifier
56284, 2022-151ADC
Orbit
SSO
Country
Flag of CNCN / PRC
Related business
Manufacturer
SAST
Mission
Spacecraft
Bus & Motor
Unknown
Mass
Unknown
Launch date (UTC)
2022-11-11 (4 years ago)
Launch vehicle
Unknown
Launch site
Taiyaun Space Center, China (TSC)
Object type
Payload
Rocket body
Debris
Shape & HBR
Unknown shape, 0.1 m
Radar Cross Section
Small (<0.1 m²)

Expand to show TLE details & history
Last TLE update: 2 days ago

TLE from 2 days ago
0 CZ-6A DEB
1 56284U 22151ADC 26171.05824253  .00002705  00000-0  56369-3 0  9998
2 56284  98.5184 208.1224 0130641 311.1132  47.8844 14.55631467170317
Epoch: 2026-06-20T01:23Z
TLE epoch observation values (Epoch: 2026-06-20T01:23:52.154Z)
Latitude
-0.00003°
Longitude
-81.12322°
Altitude
648.87 km
Speed
7.566 km/s
True Right ascension
13h 52m 29s
True Declination
0° 00' 00"
Sunlit
Object was in full shadow at epoch
Visualization orbit readout
Latitude
Unknown
Longitude
Unknown
Altitude
Unknown
Speed
Unknown
Apparent Right ascension
Unknown
Apparent Declination
Unknown
Sunlit
N/A
Visualization observer readout
Local Sidereal Time
21:41:05
Azimuth
Unknown
Elevation
Unknown
Doppler factor
Unknown
Orbital elements
Apogee altitude
796.943 km
Perigee altitude
611.889 km
Semi-major axis
7,082.553 km
Eccentricity
0.01306
Inclination
98.5184°
RAAN
208.1224°
Arg. of periapsis
311.1132°
True anomaly
49.00711°
Mean anomaly
47.8844°
Eccentric anomaly
48.44453°
Mean motion
3.64132 °/min
Orbital period
98.87 mins
BSTAR
0.00056369
Loading maneuver chart data...
Computing Atmospheric mass density...
Loading historical data...
Loading historical data...
Loading historical data...
Loading historical data...
Loading historical data...
Loading historical data...
Loading historical data...

Documentation

Showing up to 5 results
|